Theta_e
327 321 321 316 306 309 307 310 318 317 318 323 322 320 319 321 330 329 355 357 359 357 361 364 367 366 365 364 365 363 361 361 361 361 362 362 362 363 364 363 363 363 363 360 359 356 356 354 355
320 323 319 311 303 302 306 314 313 318 320 322 321 320 320 333 342 350 354 357 361 359 360 361 367 367 365 365 364 362 361 361 361 362 362 362 362 363 364 363 363 362 361 360 358 355 354 354 355
321 321 310 306 303 301 305 314 316 320 321 320 318 322 322 333 344 351 357 359 363 362 361 364 366 366 366 365 363 361 361 361 362 362 362 362 362 363 363 363 362 361 358 357 356 356 357 355 354
314 314 311 302 302 308 309 314 318 319 320 320 320 316 329 341 345 354 355 358 363 361 360 364 365 365 366 364 363 361 361 362 361 361 362 362 362 363 363 363 362 360 357 356 357 358 358 357 356
316 310 301 300 302 308 313 316 317 315 318 318 319 315 322 342 352 356 356 358 359 359 364 362 365 365 365 365 363 362 362 361 361 361 362 362 362 361 362 361 360 359 357 357 357 357 357 357 357
307 308 299 297 301 307 311 314 314 314 317 318 316 315 317 342 348 355 355 357 359 361 364 361 364 364 364 364 363 362 361 361 361 361 362 362 361 361 361 360 359 358 357 357 357 357 357 357 357
305 303 299 300 301 304 308 313 311 312 313 314 317 311 316 325 350 353 355 356 355 359 361 359 359 362 363 363 362 361 361 360 360 360 360 360 360 360 360 359 358 357 358 358 357 356 356 356 356
308 305 301 302 300 302 309 311 312 311 310 317 316 308 311 337 347 352 355 354 354 354 357 356 358 358 360 361 362 361 361 361 360 360 360 359 360 360 359 357 358 357 357 358 358 357 356 355 354
311 300 298 300 302 304 310 308 311 313 309 311 313 312 320 333 340 345 348 350 351 353 355 354 354 356 355 356 360 361 361 361 360 360 360 356 354 356 355 354 356 358 357 357 357 357 356 355 354
305 300 300 306 307 306 308 308 308 307 307 308 310 314 317 322 329 336 341 343 347 349 351 352 353 351 350 351 357 358 358 358 358 358 358 355 353 353 351 352 357 358 357 356 355 356 356 354 343
305 301 305 306 308 309 307 307 309 307 305 308 308 310 313 314 319 331 337 339 348 352 352 350 352 353 349 350 354 352 353 353 354 355 356 354 350 353 349 351 350 353 354 348 350 349 346 341 340
301 305 306 306 308 307 305 307 305 307 307 311 312 313 313 313 314 318 330 336 348 348 349 350 348 352 358 353 350 348 349 350 350 351 355 353 351 353 350 348 349 349 348 345 344 341 339 337 338
302 304 306 307 307 307 307 304 305 306 310 312 312 312 312 313 315 323 329 334 349 342 350 350 346 355 355 357 353 348 351 350 350 351 354 354 351 353 353 351 350 349 346 346 344 342 341 340 338
305 305 305 306 306 307 304 304 306 308 311 310 311 311 312 312 314 321 324 335 343 350 337 336 347 355 359 358 358 357 362 360 359 356 353 356 356 357 355 356 355 352 352 348 346 344 346 342 341
306 302 304 304 305 304 307 303 304 309 311 310 311 312 312 313 315 319 323 331 344 341 335 336 348 352 354 356 358 357 360 358 361 359 364 357 359 360 356 355 353 353 354 359 357 355 354 348 346
302 302 297 303 306 304 306 299 307 311 310 309 310 311 312 314 315 318 323 337 346 350 348 351 345 352 355 360 360 359 360 362 358 355 357 359 361 360 361 358 353 355 359 354 352 351 349 348 346
300 295 297 299 306 305 304 300 307 311 310 310 311 312 313 314 318 322 327 342 342 340 347 351 355 357 355 359 360 361 363 356 353 345 350 353 350 353 348 349 350 353 352 354 355 352 347 346 347
296 296 298 298 303 305 303 302 306 311 310 310 311 312 313 314 318 325 331 339 338 341 347 353 354 360 361 359 361 360 358 362 362 357 357 352 354 348 337 330 340 346 350 351 351 350 350 348 346
300 300 298 301 304 303 302 303 305 309 310 310 311 312 314 315 320 325 329 334 337 347 349 349 353 358 357 356 348 348 348 351 354 356 358 356 350 346 335 329 339 346 345 346 343 332 326 335 339
299 298 298 302 304 304 303 302 306 308 309 310 311 312 314 316 318 323 328 332 339 344 348 349 351 356 359 355 354 353 350 347 349 353 360 359 357 353 345 347 349 345 343 333 330 327 323 331 331
298 297 298 299 302 304 302 300 302 307 310 311 312 314 314 316 319 321 324 330 338 342 347 349 351 352 352 358 353 354 352 351 345 348 349 354 356 357 356 355 352 349 335 330 329 325 322 322 327
295 301 301 300 298 293 302 291 300 303 306 308 311 314 314 316 321 323 326 333 338 337 339 339 341 344 343 350 349 352 347 344 341 341 342 343 345 347 346 350 348 346 331 324 326 329 323 329 325
299 304 301 300 298 296 296 294 298 303 302 306 311 313 314 321 323 324 327 330 330 333 332 334 335 335 337 337 338 340 339 337 339 339 336 338 340 345 341 339 339 343 336 333 334 328 324 334 333
305 302 301 300 297 290 295 294 295 300 303 306 311 313 316 320 322 322 325 327 326 328 328 331 331 332 333 333 333 332 332 332 329 330 329 331 330 332 338 331 334 335 336 337 337 341 339 338 338
302 298 290 288 289 288 297 294 297 304 308 309 310 315 318 319 319 319 319 320 323 324 326 327 328 328 331 331 331 331 331 333 333 330 329 327 325 326 327 330 330 328 329 329 330 331 332 333 334
299 298 291 285 287 290 298 293 297 308 311 312 314 315 317 318 318 318 319 320 319 321 324 324 326 326 328 328 329 330 331 326 327 327 325 324 323 324 329 327 324 323 323 324 326 325 324 326 327
298 295 301 295 296 293 296 299 305 307 309 311 311 314 315 316 317 317 318 319 319 320 323 323 323 325 325 326 328 329 327 327 326 327 328 324 324 321 323 322 322 322 321 321 321 319 321 323 323
301 303 294 296 286 286 294 294 296 302 306 309 311 311 314 316 315 316 316 318 320 321 321 324 324 323 324 325 325 322 325 325 325 325 323 323 322 321 320 319 319 319 318 318 318 316 317 318 318
299 297 300 299 297 291 289 290 305 304 306 309 310 313 314 314 313 314 315 316 317 319 318 321 320 320 321 322 323 323 323 322 322 321 321 320 320 319 316 316 315 313 312 313 312 312 312 312 312
302 300 300 295 293 296 295 294 307 308 308 311 309 313 313 313 313 313 313 314 314 314 315 317 318 317 318 319 320 321 322 321 321 320 319 319 317 316 313 313 311 310 310 310 309 308 308 308 308
Wind_Speed
12 13 9 9 8 8 16 19 21 21 3 2 8 6 11 12 13 7 12 8 23 19 15 16 17 18 18 17 16 15 15 15 15 14 13 13 13 12 12 12 11 11 11 11 10 10 10 9 9
11 14 10 7 9 13 15 20 21 20 19 12 4 5 12 14 14 18 12 3 23 19 13 14 14 16 18 18 17 17 16 15 14 14 13 12 12 12 12 11 11 11 12 11 10 10 10 9 8
11 14 8 6 14 16 17 22 20 10 14 9 2 4 10 9 10 8 9 13 20 17 13 15 13 15 16 17 17 18 17 16 15 15 14 13 11 10 10 10 10 10 11 11 10 9 8 9 8
7 7 8 13 19 22 26 24 27 5 10 5 2 3 8 9 4 7 8 13 17 17 16 16 14 15 15 17 17 17 17 17 16 16 14 14 13 11 9 9 9 9 10 10 10 9 7 7 7
11 8 11 16 22 23 22 23 22 12 7 12 11 9 3 14 9 10 8 11 16 17 16 16 15 14 15 16 16 17 17 17 16 16 15 14 13 12 10 8 8 7 8 9 10 10 9 7 6
10 11 15 17 22 22 21 24 24 15 8 8 5 5 5 15 12 10 11 13 15 19 16 14 15 14 14 15 16 16 17 16 16 15 15 14 13 12 12 10 9 7 7 8 8 8 9 9 8
16 14 18 22 21 21 22 22 25 10 10 11 7 11 9 7 15 8 11 14 15 20 16 14 14 14 14 15 16 16 16 15 15 14 13 14 13 13 12 11 10 9 8 8 9 9 8 6 7
13 15 24 21 18 22 20 5 9 3 11 12 15 6 7 11 11 7 10 15 17 17 18 16 14 15 14 13 15 16 16 16 14 13 12 11 12 11 12 11 11 10 10 10 9 10 10 10 9
19 16 17 23 22 16 20 6 5 5 3 10 3 9 5 9 6 8 12 13 17 16 18 18 16 14 14 15 13 13 14 13 12 11 11 10 7 9 11 11 14 11 11 10 10 10 9 9 10
19 15 23 21 20 18 14 2 3 6 7 13 10 13 12 7 7 11 12 14 11 13 18 18 16 14 14 13 13 11 11 9 8 8 9 7 8 9 11 13 14 14 12 11 10 10 10 9 6
23 21 19 21 24 13 12 15 4 10 12 11 16 17 16 13 11 13 17 15 16 16 12 17 17 14 14 13 9 6 6 7 7 10 9 8 7 6 8 6 7 6 10 6 9 8 6 8 7
24 23 22 25 25 5 10 14 15 13 15 12 14 9 12 13 14 17 17 17 16 14 11 18 14 7 3 10 10 9 8 8 8 9 11 8 6 6 7 5 9 9 7 9 7 7 9 10 9
24 22 22 21 22 20 8 16 17 17 13 14 13 13 12 15 14 11 12 15 17 14 15 11 17 6 7 3 4 9 8 9 9 10 11 9 7 5 5 5 6 8 8 10 9 8 9 9 10
20 21 21 23 23 16 19 19 17 17 17 15 16 14 14 15 19 12 12 5 13 14 19 10 13 5 3 3 4 4 4 1 5 5 8 10 6 4 3 3 3 3 3 5 9 7 6 10 8
23 18 21 21 22 21 17 22 21 19 15 17 17 14 14 15 15 10 12 6 18 15 16 18 17 19 13 5 2 1 1 3 2 2 3 8 6 3 6 2 3 4 4 5 5 3 4 3 4
22 22 20 20 20 23 18 19 17 22 17 16 12 12 14 13 15 17 15 9 15 18 23 24 21 18 17 10 8 6 5 4 4 7 6 3 5 4 4 5 6 6 4 4 3 4 4 4 4
20 17 25 23 24 22 24 20 21 11 14 12 12 13 13 12 14 13 11 13 14 9 11 11 16 17 13 8 8 7 9 8 7 6 7 2 9 7 10 8 11 9 4 4 5 3 8 7 5
19 22 21 21 21 26 22 14 23 13 14 12 11 12 11 13 12 9 7 15 11 11 11 8 12 15 10 7 3 1 5 2 2 7 6 7 5 10 9 4 16 17 7 6 7 8 4 3 4
21 21 22 17 19 14 15 18 17 14 14 14 12 11 10 11 13 11 12 11 9 9 9 9 8 12 7 7 6 6 6 6 4 5 4 8 7 10 10 8 16 16 8 4 9 7 9 9 11
23 24 21 16 17 8 14 16 18 15 11 12 12 10 10 10 8 10 8 6 12 12 11 9 8 6 2 3 2 2 1 1 1 2 1 4 5 13 11 11 11 4 2 8 9 4 3 3 5
23 23 21 15 18 13 10 13 12 18 12 12 11 2 5 8 13 11 9 7 12 12 9 10 10 8 7 3 4 3 2 1 1 2 3 5 5 1 6 6 7 3 7 8 6 8 8 5 5
22 22 19 14 12 14 19 15 15 16 15 12 10 9 9 12 13 12 11 12 12 11 10 10 10 7 7 8 7 8 5 5 4 4 6 5 7 5 6 4 6 2 4 6 8 8 7 9 6
21 18 20 15 17 11 18 14 13 19 18 18 10 8 10 14 15 13 13 13 11 10 9 8 8 8 7 9 10 7 6 4 2 4 7 6 5 2 3 3 2 5 3 4 7 5 9 8 6
19 18 17 19 13 17 19 16 14 11 23 20 17 14 11 16 15 14 12 10 10 10 10 8 7 7 7 8 9 9 8 6 5 6 4 4 6 5 7 9 7 6 4 4 4 3 9 10 9
19 17 11 12 14 14 21 21 13 3 4 19 17 14 16 14 14 13 12 12 10 10 10 9 8 7 6 7 7 7 6 2 2 3 4 6 5 6 7 7 6 5 5 7 6 6 8 7 8
21 19 12 20 14 17 21 21 19 18 18 17 15 15 15 13 13 14 12 10 11 9 8 9 8 7 6 6 6 5 5 5 4 7 5 5 5 5 6 6 8 8 8 7 6 6 7 10 9
21 21 19 16 3 3 6 15 17 16 19 21 16 15 15 16 14 14 12 10 11 9 7 6 7 6 5 5 4 4 5 4 4 4 3 4 5 6 7 8 8 8 7 8 7 7 9 9 10
24 19 19 15 7 12 9 4 6 15 19 20 18 15 15 14 15 13 11 9 7 10 7 5 5 4 4 4 5 5 3 4 4 4 5 5 6 7 8 9 9 9 9 9 8 8 9 10 9
17 12 4 7 7 5 5 2 12 7 15 16 19 16 14 13 15 13 12 10 10 8 8 5 5 4 4 4 3 3 3 4 4 4 5 5 6 7 9 10 10 11 11 11 10 10 11 11 11
21 17 15 4 7 7 5 5 13 6 8 3 11 19 16 14 15 12 13 9 9 7 6 7 4 4 5 5 4 4 4 4 5 5 6 6 7 8 9 10 11 11 11 10 10 12 12 13 12
Wind_Direction
280 261 245 255 247 228 253 254 258 270 184 109 51 347 341 315 30 89 81 61 120 127 127 137 138 140 139 139 136 134 133 133 133 130 130 131 130 128 122 123 121 118 121 122 116 112 113 109 106
280 275 240 269 235 246 248 245 257 274 94 88 101 249 242 71 41 112 95 157 120 128 141 136 138 142 144 143 140 138 138 137 134 132 134 132 133 135 133 132 131 126 125 124 123 121 120 120 121
261 260 244 223 234 240 254 254 243 255 103 126 117 104 301 86 49 71 90 122 121 132 152 130 139 141 146 144 145 142 142 141 140 140 140 138 139 139 137 136 134 133 133 132 128 126 128 130 132
237 230 252 254 240 226 240 267 282 157 121 101 54 266 88 77 62 60 118 139 129 139 152 137 141 142 147 147 147 145 145 145 145 146 145 145 147 145 143 141 138 141 141 137 135 133 137 137 138
233 259 233 238 239 252 262 240 251 282 166 171 177 244 74 113 93 114 140 145 145 150 127 142 143 145 147 149 149 147 147 147 149 149 149 152 151 149 147 144 144 149 148 150 146 145 149 153 157
228 232 247 240 249 251 243 259 269 262 273 234 214 196 251 126 154 147 154 155 156 135 147 147 141 142 145 148 148 148 147 151 151 154 155 155 156 155 153 154 156 161 161 157 154 157 163 165 171
242 238 237 252 263 265 244 235 241 235 249 252 270 267 255 178 115 163 165 162 159 145 143 156 157 151 149 148 148 149 147 152 153 156 159 159 161 161 160 162 164 166 169 170 168 171 176 185 188
232 252 259 251 254 262 266 153 98 172 248 262 258 257 262 100 122 167 178 180 164 153 139 159 159 161 161 157 149 150 151 153 155 155 159 164 164 167 170 168 172 175 176 180 184 187 185 187 196
232 248 248 247 256 258 265 194 123 208 346 295 260 230 53 105 171 193 209 209 170 159 148 161 165 167 168 156 155 148 151 150 149 155 162 158 186 182 182 197 176 183 186 192 194 200 203 203 206
229 232 243 256 257 262 303 109 193 154 220 254 242 245 257 150 222 215 219 212 120 155 163 158 154 173 182 160 151 163 160 164 174 178 173 201 218 180 201 194 179 184 191 199 205 211 211 211 231
224 241 249 242 262 287 299 311 165 246 217 231 228 230 239 238 227 237 225 228 169 166 168 150 160 171 185 145 155 168 161 167 175 180 173 206 215 212 201 180 178 185 196 205 202 203 216 220 224
232 231 243 265 277 265 282 288 281 268 246 264 256 258 260 232 217 228 244 229 160 92 73 10 3 121 258 133 153 167 170 176 175 187 183 189 222 223 189 190 186 188 188 202 208 204 203 212 219
232 238 239 253 260 273 237 260 259 257 265 251 256 263 247 256 239 219 228 262 96 104 74 75 130 298 269 125 160 168 180 177 189 178 183 189 212 230 201 215 198 189 200 193 204 207 196 200 209
235 236 245 243 262 248 251 251 249 249 248 251 248 249 243 234 247 198 232 224 117 111 102 97 303 317 295 20 3 102 97 133 167 160 181 193 201 239 213 218 274 256 227 214 203 213 193 192 188
255 246 245 236 247 258 246 244 241 250 233 247 214 225 243 228 240 204 235 230 132 140 137 142 176 226 247 175 169 314 133 146 82 291 155 193 202 246 299 257 251 275 270 306 292 220 248 210 194
243 243 249 232 231 238 240 255 249 230 216 229 219 214 217 225 215 225 226 166 124 146 160 169 165 191 197 173 175 191 185 78 30 352 330 288 167 224 198 278 271 231 228 223 246 323 318 225 230
231 241 234 244 246 215 220 239 251 201 201 210 218 209 216 203 213 218 203 139 149 143 152 187 158 155 187 179 177 183 167 147 155 168 249 287 352 356 351 306 285 281 271 267 265 163 185 268 304
220 226 241 243 232 236 213 215 250 177 188 210 228 212 203 199 196 192 186 150 164 161 165 192 148 152 165 156 101 101 82 92 154 185 205 128 137 152 182 333 318 291 294 278 293 306 321 320 307
247 239 227 236 237 197 216 219 240 243 196 226 204 230 218 198 182 182 201 159 183 149 123 119 104 148 152 156 169 189 169 182 187 204 201 139 170 177 178 206 208 225 228 295 16 24 14 351 350
236 252 246 220 251 247 201 229 241 242 247 195 215 233 225 200 157 172 171 127 81 80 81 79 87 110 151 207 139 73 60 105 175 66 118 266 183 179 194 208 222 225 334 60 33 22 346 325 10
229 238 247 252 220 233 245 231 263 275 238 217 215 249 274 256 142 136 110 83 86 69 64 65 62 58 19 18 111 109 97 143 287 335 350 21 358 48 186 236 237 244 80 66 312 316 269 228 213
229 226 245 239 262 242 215 243 217 233 260 242 180 209 230 250 124 119 120 95 84 79 65 58 48 51 39 356 57 43 43 40 23 9 31 17 8 36 25 333 281 203 174 199 196 184 221 234 210
230 224 221 232 229 272 280 228 251 203 216 240 179 175 209 105 106 112 110 98 93 90 81 74 72 71 56 46 35 79 56 64 357 7 15 353 349 324 329 346 68 64 178 217 223 189 203 233 250
213 230 226 215 219 233 239 262 250 254 198 210 170 174 147 108 105 102 101 106 110 122 109 103 93 78 67 68 61 63 57 34 18 16 343 344 4 350 48 24 13 16 10 345 349 262 237 246 250
199 217 220 222 220 237 218 223 245 325 93 180 152 143 118 112 121 125 137 141 139 124 119 124 106 94 84 71 66 67 61 358 324 26 14 8 346 340 350 6 4 358 346 324 315 314 298 291 280
202 205 213 215 224 229 221 221 219 181 93 32 103 125 124 142 144 156 128 130 118 108 98 104 104 86 78 67 54 52 37 23 354 39 17 338 319 317 348 346 350 338 330 307 298 293 288 293 295
194 212 226 243 7 326 255 237 211 164 128 149 146 154 159 155 140 127 132 129 125 109 91 78 88 82 62 70 60 57 45 18 7 3 338 326 343 336 334 333 321 310 300 304 306 299 295 289 290
229 208 216 230 186 248 236 273 177 173 145 157 170 149 155 135 139 137 129 118 111 116 108 103 90 83 76 59 55 45 8 8 6 355 349 340 337 337 321 311 315 320 320 319 318 308 305 306 308
206 223 191 303 226 237 206 241 298 7 350 156 154 161 149 152 144 140 132 138 150 137 122 102 72 56 61 49 38 29 5 356 356 342 340 336 328 321 321 323 331 332 328 326 324 315 308 305 307
212 194 172 222 223 255 250 147 214 139 287 116 354 157 153 164 145 144 134 147 120 90 82 88 50 22 22 17 6 358 357 356 343 335 335 331 330 339 335 326 318 309 301 296 290 287 288 291 292